Owatonna, Minnesota, United States (55060)
Lat: 44.08N, Lon: 93.23W
Wx Zone: MNZ085
Local Info
Past Weather Observations for Today

NOTE: This archive is for the closest National Weather Service station to Owatonna. Information may differ from the station used for current weather conditions.

Click here for Long-term Archive

Time Weather Temperature Dewpoint Humidity Pressure Winds Precip Visibility
17:35
Clear
39°F / 4°C 25°F / -4°C 56% 30.09 in
(1019 mb)
SSE 12.7 mph
(SSE 20 kph)
- 10SM
17:15
Clear
41°F / 5°C 25°F / -4°C 53% 30.09 in
(1019 mb)
SSE 11.5 mph
(SSE 19 kph)
- 10SM
16:55
Clear
41°F / 5°C 25°F / -4°C 53% 30.09 in
(1019 mb)
SSE 13.8 mph
(SSE 22 kph)
- 10SM
16:35
Clear
39°F / 4°C 27°F / -3°C 61% 30.09 in
(1019 mb)
SE 9.2 mph
(SE 15 kph)
- 10SM
16:15
Clear
39°F / 4°C 27°F / -3°C 61% 30.12 in
(1020 mb)
SE 11.5 mph
(SE 19 kph)
- 10SM
15:55
Clear
39°F / 4°C 27°F / -3°C 61% 30.12 in
(1020 mb)
SE 10.4 mph
(SE 17 kph)
- 10SM
15:35
Clear
39°F / 4°C 27°F / -3°C 61% 30.12 in
(1020 mb)
SE 8.1 mph
(SE 13 kph)
- 10SM
15:15
Clear
39°F / 4°C 25°F / -4°C 56% 30.15 in
(1021 mb)
SE 9.2 mph
(SE 15 kph)
- 10SM
14:55
Clear
39°F / 4°C 25°F / -4°C 56% 30.15 in
(1021 mb)
SE 13.8 mph
(SE 22 kph)
- 10SM
14:35
Clear
39°F / 4°C 25°F / -4°C 56% 30.15 in
(1021 mb)
SE 12.7 mph
(SE 20 kph)
- 10SM
14:15
Clear
39°F / 4°C 21°F / -6°C 48% 30.15 in
(1021 mb)
SE 11.5 mph
(SE 19 kph)
- 10SM
13:55
Clear
39°F / 4°C 19°F / -7°C 45% 30.18 in
(1022 mb)
S 13.8 mph
(S 22 kph)
- 10SM
13:35
Clear
37°F / 3°C 19°F / -7°C 48% 30.18 in
(1022 mb)
SSE 12.7 mph
(SSE 20 kph)
- 10SM
13:15
Clear
37°F / 3°C 21°F / -6°C 52% 30.18 in
(1022 mb)
SSE 11.5 mph
(SSE 19 kph)
- 10SM
12:55
Clear
37°F / 3°C 19°F / -7°C 48% 30.21 in
(1023 mb)
SSE 15 mph
(SSE 24 kph)
- 10SM
12:35
Clear
37°F / 3°C 19°F / -7°C 48% 30.21 in
(1023 mb)
S 13.8 mph
(S 22 kph)
- 10SM
12:15
Clear
37°F / 3°C 19°F / -7°C 48% 30.21 in
(1023 mb)
SSE 11.5 mph
(SSE 19 kph)
- 10SM
11:55
Clear
36°F / 2°C 19°F / -7°C 52% 30.21 in
(1023 mb)
SSE 8.1 mph
(SSE 13 kph)
- 10SM
11:35
Clear
36°F / 2°C 19°F / -7°C 52% 30.24 in
(1024 mb)
S 8.1 mph
(S 13 kph)
- 10SM
11:15
Clear
36°F / 2°C 19°F / -7°C 52% 30.24 in
(1024 mb)
SSE 8.1 mph
(SSE 13 kph)
- 10SM
10:55
Clear
36°F / 2°C 19°F / -7°C 52% 30.24 in
(1024 mb)
S 8.1 mph
(S 13 kph)
- 10SM
10:35
Clear
34°F / 1°C 19°F / -7°C 56% 30.24 in
(1024 mb)
SSE 10.4 mph
(SSE 17 kph)
- 10SM
10:15
Clear
34°F / 1°C 19°F / -7°C 56% 30.24 in
(1024 mb)
SSE 9.2 mph
(SSE 15 kph)
- 10SM
09:55
Clear
32°F / 0°C 18°F / -8°C 55% 30.24 in
(1024 mb)
SSE 10.4 mph
(SSE 17 kph)
- 10SM
09:35
Clear
32°F / 0°C 18°F / -8°C 55% 30.24 in
(1024 mb)
SSE 9.2 mph
(SSE 15 kph)
- 10SM
09:15
Clear
30°F / -1°C 18°F / -8°C 59% 30.24 in
(1024 mb)
SSE 10.4 mph
(SSE 17 kph)
- 10SM
08:55
Clear
28°F / -2°C 16°F / -9°C 59% 30.24 in
(1024 mb)
SSE 10.4 mph
(SSE 17 kph)
- 10SM
08:35
Clear
28°F / -2°C 16°F / -9°C 59% 30.24 in
(1024 mb)
SE 10.4 mph
(SE 17 kph)
- 10SM
08:15
Clear
27°F / -3°C 16°F / -9°C 64% 30.24 in
(1024 mb)
SE 9.2 mph
(SE 15 kph)
- 10SM
07:55
Clear
27°F / -3°C 14°F / -10°C 59% 30.24 in
(1024 mb)
SE 9.2 mph
(SE 15 kph)
- 10SM
07:35
Clear
23°F / -5°C 14°F / -10°C 68% 30.24 in
(1024 mb)
SE 6.9 mph
(SE 11 kph)
- 10SM
07:15
Clear
21°F / -6°C 12°F / -11°C 68% 30.24 in
(1024 mb)
SE 5.8 mph
(SE 9 kph)
- 10SM
06:55
Clear
18°F / -8°C 12°F / -11°C 79% 30.24 in
(1024 mb)
ESE 4.6 mph
(ESE 7 kph)
- 10SM
06:35
Clear
18°F / -8°C 10°F / -12°C 73% 30.21 in
(1023 mb)
E 5.8 mph
(E 9 kph)
- 10SM
06:15
Clear
16°F / -9°C 10°F / -12°C 79% 30.21 in
(1023 mb)
Calm - 10SM
05:55
Clear
18°F / -8°C 12°F / -11°C 79% 30.21 in
(1023 mb)
ESE 3.5 mph
(ESE 6 kph)
- 10SM
05:35
Partly Cloudy
18°F / -8°C 12°F / -11°C 79% 30.21 in
(1023 mb)
Calm - 10SM
05:15
Partly Cloudy
18°F / -8°C 12°F / -11°C 79% 30.18 in
(1022 mb)
Calm - 10SM
04:55
Clear
19°F / -7°C 10°F / -12°C 68% 30.18 in
(1022 mb)
Calm - 10SM
04:35
Partly Cloudy
19°F / -7°C 12°F / -11°C 73% 30.18 in
(1022 mb)
ESE 4.6 mph
(ESE 7 kph)
- 10SM
04:15
Overcast
19°F / -7°C 12°F / -11°C 73% 30.18 in
(1022 mb)
Calm - 10SM
03:55
Overcast
21°F / -6°C 12°F / -11°C 68% 30.18 in
(1022 mb)
Calm - 10SM
03:35
Mostly Cloudy
19°F / -7°C 12°F / -11°C 73% 30.18 in
(1022 mb)
Calm - 10SM
03:15
Partly Cloudy
21°F / -6°C 12°F / -11°C 68% 30.15 in
(1021 mb)
SSE 5.8 mph
(SSE 9 kph)
- 10SM
02:55
Overcast
21°F / -6°C 12°F / -11°C 68% 30.15 in
(1021 mb)
SSE 8.1 mph
(SSE 13 kph)
- 10SM
02:35
Overcast
21°F / -6°C 12°F / -11°C 68% 30.15 in
(1021 mb)
SSE 8.1 mph
(SSE 13 kph)
- 10SM
02:15
Overcast
21°F / -6°C 12°F / -11°C 68% 30.15 in
(1021 mb)
SSE 6.9 mph
(SSE 11 kph)
- 10SM
01:55
Mostly Cloudy
21°F / -6°C 12°F / -11°C 68% 30.15 in
(1021 mb)
SE 5.8 mph
(SE 9 kph)
- 10SM
01:35
Mostly Cloudy
21°F / -6°C 12°F / -11°C 68% 30.15 in
(1021 mb)
SE 5.8 mph
(SE 9 kph)
- 10SM
01:15
Overcast
23°F / -5°C 12°F / -11°C 63% 30.15 in
(1021 mb)
SE 5.8 mph
(SE 9 kph)
- 10SM
00:55
Overcast
23°F / -5°C 10°F / -12°C 58% 30.15 in
(1021 mb)
SE 5.8 mph
(SE 9 kph)
- 10SM
00:35
Overcast
23°F / -5°C 12°F / -11°C 63% 30.15 in
(1021 mb)
SE 4.6 mph
(SE 7 kph)
- 10SM
00:15
Fair
23°F / -5°C 10°F / -12°C 58% 30.15 in
(1021 mb)
SE 4.6 mph
(SE 7 kph)
- 10SM
Time Weather Temperature Dewpoint Humidity Pressure Winds Precip Visibility


Weather for websites

WeatherForYou.com, LLC is not responsible for any damages or problems caused by this service. Current weather conditions are obtained from the closest station including government and personal stations which may have varying degrees of accuracy. Weather forecasts are derived from the NOAA NDFD. Like all things, this site belongs to Jesus Christ... He just trusts me to maintain it. If you have any questions or comments email webmaster@weatherforyou.com

Copyright © 2015, WeatherForYou.com LLC. All rights reserved.